[[{"header":{"parameterUnit":"m.s-1","parameterCategory":1,"la1":30.2991,"la2":30.254,"lo1":-89.0895,"lo2":-89.0444,"dy":0.0017,"dx":0.0017,"nx":28,"ny":28,"refTime":"2025-04-29T03:00:00:Z","depth":0,"parameterNumber":2,"parameterNumberName":"U-component_of_WINDS"},"data":[0,0,0,0,0,0,0,0,0,0,0,0,0,0,0,0,0,0,0,0,0,0,0,0,0,0,0,0,0,0,0,0,0,0,0,0,0,0,0,0,0,0,0,0,0,0,0,0,0,0,0,0,0,0,0,0,0,0,-2.6133,-2.6134,0,-2.6209,-2.621,-2.6211,-2.6219,-2.6218,-2.6218,-2.6217,-2.629,-2.6293,-2.6295,0,0,0,0,0,0,0,0,0,0,0,0,0,-2.5992,-2.5995,-2.6133,-2.6134,-2.6135,-2.6209,-2.621,-2.6211,-2.6219,-2.6218,-2.6217,-2.6216,-2.6289,-2.6292,-2.6295,0,0,0,0,0,0,0,0,0,0,0,0,0,-2.6059,-2.5995,-2.6133,-2.6148,-2.615,-2.6209,-2.621,-2.6211,-2.6219,-2.6218,-2.6217,-2.6216,-2.6288,-2.6292,-2.6296,-2.6343,0,0,-2.6308,-2.631,0,0,0,0,0,0,0,0,-2.6055,-2.6064,-2.6145,-2.6147,-2.615,-2.6204,-2.6187,-2.6255,-2.622,-2.6193,-2.6217,-2.6215,-2.6262,-2.6268,-2.6285,-2.6347,-2.635,-2.6308,-2.6311,-2.6313,-2.6314,0,0,0,0,0,0,0,-2.6051,-2.6061,-2.6163,-2.6146,-2.6149,-2.615,-2.6158,-2.62,-2.6233,-2.6195,-2.6196,-2.6205,-2.6263,-2.6281,-2.6286,-2.6351,-2.6308,-2.6312,-2.6314,-2.6316,-2.6456,-2.6458,0,0,0,0,0,0,-2.6044,-2.6057,-2.6161,-2.6166,-2.6099,-2.6154,-2.6163,-2.6187,-2.6232,-2.6238,-2.6206,-2.6205,-2.6274,-2.6282,-2.6289,-2.6348,-2.6313,-2.6316,-2.6319,-2.6455,-2.6457,-2.6458,0,0,0,0,0,0,-2.6041,-2.6053,-2.6158,-2.6112,-2.6125,-2.6157,-2.6185,-2.619,-2.6207,-2.6241,-2.6246,-2.6218,-2.6274,-2.6283,-2.633,-2.635,-2.6318,-2.6322,-2.6454,-2.6456,-2.6457,-2.6465,0,0,0,0,0,0,-2.6036,-2.6052,-2.6071,-2.6112,-2.6128,-2.6199,-2.6186,-2.6192,-2.6215,-2.6214,-2.6254,-2.6259,-2.6274,-2.6324,-2.6334,-2.6355,-2.6325,-2.6452,-2.6454,-2.6457,-2.6463,-2.6467,-2.647,0,0,0,0,0,-2.6031,-2.6069,-2.6072,-2.6084,-2.6152,-2.62,-2.6209,-2.6226,-2.6216,-2.6235,-2.6257,-2.6258,-2.6347,-2.6329,-2.634,-2.6363,-2.6451,-2.6454,-2.6457,-2.6461,-2.6466,-2.647,0,0,0,0,0,0,-2.6026,-2.6074,-2.6078,-2.613,-2.6161,-2.6201,-2.6225,-2.623,-2.6264,-2.6262,-2.6281,-2.6289,-2.6336,-2.6354,-2.6333,-2.6411,-2.6398,-2.6403,-2.6397,-2.6402,-2.6406,-2.64,-2.6328,0,0,0,0,0,-2.6032,-2.6068,-2.6107,-2.6149,-2.6165,-2.6193,-2.6214,-2.6225,-2.6257,-2.627,-2.6295,-2.6325,-2.636,-2.6382,-2.6416,-2.6466,-2.6475,-2.6487,-2.6491,-2.6494,-2.6498,-2.6526,-2.6532,-2.6468,-2.6468,-2.6468,0,0,-2.6042,-2.6073,-2.6094,-2.6149,-2.6174,-2.621,-2.6203,-2.6241,-2.6268,-2.6275,-2.6321,-2.6341,-2.6376,-2.6425,-2.6448,-2.6441,-2.6518,-2.6498,-2.65,-2.6502,-2.653,-2.6536,-2.6541,-2.647,-2.647,-2.6469,0,0,-2.608,-2.6107,-2.6145,-2.6172,-2.6211,-2.623,-2.6239,-2.6279,-2.6293,-2.634,-2.6346,-2.6378,-2.6437,-2.6462,-2.6483,-2.6532,-2.6534,-2.6543,-2.6561,-2.6588,-2.6593,-2.6598,-2.6615,-2.6621,-2.6547,-2.6547,-2.6547,0,-2.6088,-2.6143,-2.6164,-2.6203,-2.6226,-2.6237,-2.6275,-2.6299,-2.6347,-2.6363,-2.6356,-2.6432,-2.6456,-2.6511,-2.6523,-2.654,-2.655,-2.6537,-2.6591,-2.6596,-2.6601,-2.6617,-2.6624,-2.6547,-2.6547,-2.6547,-2.6547,0,-2.6151,-2.6189,-2.6215,-2.6263,-2.629,-2.6328,-2.6354,-2.6378,-2.6388,-2.6407,-2.6455,-2.6485,-2.6525,-2.6539,-2.6548,-2.6596,-2.6591,-2.6588,-2.6574,-2.6607,-2.6623,-2.663,-2.6549,-2.6548,-2.6548,-2.6548,0,0,-2.6185,-2.6246,-2.6255,-2.6277,-2.6323,-2.6352,-2.6391,-2.6433,-2.6453,-2.6486,-2.6518,-2.657,-2.6568,-2.6591,-2.6602,-2.6627,-2.6664,-2.662,-2.6621,-2.6627,-2.6718,-2.672,-2.6727,-2.6666,-2.6668,-2.6669,-2.6715,0,-2.6228,-2.6299,-2.6319,-2.6378,-2.6414,-2.6425,-2.6459,-2.649,-2.6509,-2.6542,-2.6563,-2.6599,-2.6593,-2.6607,-2.6632,-2.6654,-2.6682,-2.6651,-2.6695,-2.6697,-2.6685,-2.6735,-2.6737,-2.678,-2.6722,-2.6723,-2.6724,0,-2.6286,-2.6322,-2.6386,-2.6427,-2.6443,-2.6473,-2.6513,-2.6545,-2.658,-2.6592,-2.6619,-2.663,-2.667,-2.6655,-2.6711,-2.6689,-2.6709,-2.6722,-2.6725,-2.6728,-2.6711,-2.674,-2.6794,-2.68,-2.6734,-2.6733,-2.6732,0,-2.6304,-2.6369,-2.6415,-2.6434,-2.6484,-2.6505,-2.6527,-2.6561,-2.6585,-2.662,-2.6636,-2.6674,-2.6695,-2.6724,-2.6744,-2.6732,-2.6798,-2.6785,-2.6808,-2.6808,-2.682,-2.6819,-2.6877,-2.6834,-2.6834,-2.6834,-2.6834,0,-2.6349,-2.6387,-2.6425,-2.6453,-2.6496,-2.6519,-2.6561,-2.6582,-2.6613,-2.6646,-2.6658,-2.6687,-2.6713,-2.6746,-2.6762,-2.6805,-2.6814,-2.6825,-2.6828,-2.6823,-2.6822,-2.6835,-2.6832,-2.6836,-2.6836,-2.6835,-2.6835,0,-2.6376,-2.6403,-2.6454,-2.6498,-2.651,-2.654,-2.6577,-2.6605,-2.6625,-2.6666,-2.6677,-2.6709,-2.6748,-2.6772,-2.6821,-2.6832,-2.688,-2.6882,-2.6868,-2.687,-2.6891,-2.6889,-2.6959,-2.697,-2.6921,-2.6921,-2.6922,0,-2.6402,-2.6432,-2.648,-2.6503,-2.6525,-2.6563,-2.6588,-2.6612,-2.6638,-2.6681,-2.6703,-2.6744,-2.6778,-2.6841,-2.6868,-2.6906,-2.6909,-2.6931,-2.6914,-2.6909,-2.6908,-2.6906,-2.6909,-2.6933,-2.6934,-2.6934,-2.6934,0,-2.6445,-2.6457,-2.6494,-2.6536,-2.6566,-2.66,-2.6633,-2.6651,-2.6681,-2.6709,-2.675,-2.6777,-2.6829,-2.6869,-2.691,-2.6931,-2.6937,-2.694,-2.6947,-2.6941,-2.6932,-2.6937,-2.6875,-2.6938,-2.6937,-2.6937,-2.6937,-2.6937,-2.6472,-2.6499,-2.6538,-2.6578,-2.6607,-2.6638,-2.6666,-2.6692,-2.6727,-2.6772,-2.6785,-2.6828,-2.6863,-2.6919,-2.6942,-2.6975,-2.6972,-2.6982,-2.6985,-2.6987,-2.6987,-2.6928,-2.6983,-2.6983,-2.6983,-2.6983,-2.6983,0,-2.6515,-2.6541,-2.6579,-2.6626,-2.6658,-2.6664,-2.6701,-2.6727,-2.6766,-2.6799,-2.6833,-2.6881,-2.6921,-2.6952,-2.6992,-2.7013,-2.7017,-2.7023,-2.7021,-2.7025,-2.6988,-2.6978,-2.7019,-2.7019,-2.7019,-2.7019,-2.7019,-2.7019,-2.6541,-2.6588,-2.6605,-2.6666,-2.6692,-2.6736,-2.6757,-2.6786,-2.6812,-2.6866,-2.69,-2.692,-2.6953,-2.6996,-2.7032,-2.704,-2.7054,-2.7059,-2.7068,-2.7032,-2.7028,-2.7024,-2.7014,-2.7062,-2.7062,-2.7102,-2.7102,-2.7102]},{"header":{"parameterUnit":"m.s-1","parameterCategory":1,"la1":30.2991,"la2":30.254,"lo1":-89.0895,"lo2":-89.0444,"dy":0.0017,"dx":0.0017,"nx":28,"ny":28,"refTime":"2025-04-29T03:00:00:Z","depth":0,"parameterNumber":3,"parameterNumberName":"V-component_of_WINDS"},"data":[0,0,0,0,0,0,0,0,0,0,0,0,0,0,0,0,0,0,0,0,0,0,0,0,0,0,0,0,0,0,0,0,0,0,0,0,0,0,0,0,0,0,0,0,0,0,0,0,0,0,0,0,0,0,0,0,0,0,2.6643,2.6643,0,2.6672,2.6672,2.6672,2.666,2.6659,2.6658,2.6658,2.6685,2.6686,2.6687,0,0,0,0,0,0,0,0,0,0,0,0,0,2.6574,2.6576,2.6643,2.6643,2.6644,2.6672,2.6672,2.6673,2.666,2.6659,2.6658,2.6657,2.6684,2.6686,2.6687,0,0,0,0,0,0,0,0,0,0,0,0,0,2.6604,2.6576,2.6643,2.6641,2.6641,2.6672,2.6672,2.6673,2.666,2.6659,2.6658,2.6657,2.6684,2.6686,2.6688,2.6721,0,0,2.6694,2.6695,0,0,0,0,0,0,0,0,2.6602,2.6606,2.6641,2.6641,2.6641,2.6661,2.6658,2.6689,2.666,2.6653,2.6658,2.6656,2.6677,2.668,2.6688,2.6723,2.6724,2.6694,2.6695,2.6696,2.6697,0,0,0,0,0,0,0,2.66,2.6605,2.6654,2.6641,2.6641,2.6638,2.6641,2.6664,2.667,2.6653,2.6652,2.6656,2.6677,2.6686,2.6688,2.6724,2.6694,2.6696,2.6697,2.6698,2.6789,2.679,0,0,0,0,0,0,2.6598,2.6603,2.6653,2.6655,2.6619,2.664,2.6643,2.6656,2.667,2.6671,2.6657,2.6655,2.6683,2.6686,2.6689,2.673,2.6696,2.6698,2.6699,2.6788,2.6789,2.679,0,0,0,0,0,0,2.6597,2.6603,2.6652,2.6629,2.6635,2.6642,2.6656,2.6657,2.6665,2.6673,2.6674,2.6664,2.6682,2.6686,2.6714,2.673,2.6699,2.6701,2.6786,2.6788,2.679,2.6811,0,0,0,0,0,0,2.6595,2.6602,2.6616,2.6629,2.6636,2.6677,2.6657,2.6658,2.6669,2.6667,2.668,2.6681,2.6681,2.6711,2.6716,2.6733,2.6703,2.6785,2.6787,2.6789,2.6809,2.6813,2.6817,0,0,0,0,0,2.6593,2.662,2.6616,2.6623,2.6653,2.6678,2.6682,2.6682,2.667,2.6684,2.6689,2.6681,2.6728,2.6714,2.6719,2.6737,2.6784,2.6787,2.6789,2.6807,2.6813,2.6817,0,0,0,0,0,0,2.6607,2.6622,2.6618,2.6651,2.6663,2.6676,2.6692,2.6688,2.6703,2.6701,2.67,2.6703,2.6731,2.6737,2.6721,2.6771,2.6754,2.6758,2.6766,2.6771,2.6775,2.6773,2.6704,0,0,0,0,0,2.6614,2.6634,2.6645,2.6673,2.668,2.6685,2.6696,2.6695,2.6708,2.6713,2.672,2.6732,2.6749,2.676,2.6777,2.681,2.6813,2.6825,2.6829,2.6833,2.6836,2.6854,2.6859,2.6799,2.6799,2.6799,0,0,2.6628,2.6639,2.6651,2.6676,2.6686,2.6706,2.6689,2.6711,2.6725,2.6715,2.6742,2.6748,2.6761,2.6792,2.6806,2.6797,2.6853,2.6836,2.6839,2.684,2.6857,2.6863,2.6868,2.6801,2.6801,2.68,0,0,2.6665,2.6675,2.67,2.671,2.6726,2.6729,2.6735,2.6749,2.6752,2.678,2.6773,2.679,2.682,2.6829,2.6838,2.688,2.6873,2.6885,2.6907,2.6924,2.6929,2.6933,2.6948,2.6953,2.6889,2.6889,2.6889,0,2.6681,2.6711,2.6713,2.6735,2.6746,2.674,2.6764,2.6774,2.6793,2.6801,2.6792,2.683,2.6838,2.6871,2.6881,2.6889,2.6895,2.6883,2.6928,2.6933,2.6936,2.695,2.6956,2.689,2.689,2.689,2.689,0,2.673,2.6751,2.6769,2.6789,2.6802,2.6826,2.683,2.6843,2.6842,2.6846,2.6874,2.6884,2.6902,2.691,2.6908,2.6943,2.6937,2.6929,2.6911,2.6944,2.6957,2.6962,2.6892,2.6891,2.6891,2.6891,0,0,2.6775,2.6797,2.6804,2.6813,2.683,2.6846,2.6869,2.6888,2.6899,2.6913,2.6932,2.6958,2.695,2.6961,2.696,2.6976,2.7008,2.6965,2.6965,2.6972,2.7046,2.7053,2.7059,2.7004,2.7005,2.7006,2.7045,0,2.6813,2.6854,2.6857,2.6894,2.6913,2.6908,2.6928,2.694,2.6945,2.6962,2.6967,2.6985,2.6974,2.698,2.6995,2.7001,2.7023,2.6998,2.7021,2.7021,2.7017,2.7066,2.7072,2.7109,2.705,2.7051,2.7052,0,2.6862,2.6879,2.6919,2.6933,2.6942,2.696,2.6978,2.6994,2.7008,2.701,2.7022,2.702,2.7043,2.7026,2.7057,2.7041,2.705,2.7054,2.7056,2.7057,2.7038,2.7068,2.7121,2.7126,2.706,2.7059,2.7059,0,2.6891,2.6924,2.6952,2.696,2.6978,2.6991,2.6999,2.7011,2.7023,2.7039,2.7046,2.7064,2.7074,2.7087,2.7089,2.7077,2.7121,2.7104,2.7123,2.7123,2.7132,2.7131,2.7186,2.7139,2.7139,2.7139,2.7139,0,2.6933,2.6957,2.6965,2.6982,2.7009,2.7011,2.7038,2.7045,2.7056,2.7074,2.707,2.7087,2.7089,2.7106,2.7108,2.7134,2.7138,2.714,2.714,2.714,2.714,2.7146,2.7144,2.714,2.714,2.714,2.7139,0,2.6969,2.6976,2.7006,2.7021,2.7025,2.7045,2.7057,2.7073,2.7078,2.7101,2.7106,2.7114,2.7134,2.7138,2.7161,2.7162,2.7193,2.719,2.7188,2.7188,2.7207,2.7205,2.7267,2.7276,2.7223,2.7224,2.7224,0,2.6995,2.7014,2.7032,2.7044,2.7053,2.7073,2.7085,2.7088,2.7101,2.7118,2.7132,2.7152,2.7168,2.72,2.7207,2.7225,2.7223,2.7244,2.7226,2.7225,2.7223,2.7222,2.7224,2.7247,2.7248,2.7248,2.7248,0,2.7041,2.7043,2.7062,2.7081,2.7096,2.7112,2.7126,2.7136,2.7141,2.7156,2.7177,2.7189,2.7214,2.7233,2.7252,2.7259,2.7254,2.7254,2.726,2.726,2.7258,2.7259,2.7198,2.7253,2.7252,2.7252,2.7252,2.7251,2.7073,2.7089,2.7105,2.7125,2.7137,2.7151,2.7167,2.7174,2.7192,2.7213,2.7214,2.7237,2.725,2.7274,2.7283,2.73,2.7294,2.7301,2.7303,2.7305,2.7307,2.7255,2.7304,2.7303,2.7303,2.7303,2.7303,0,2.7118,2.7128,2.7147,2.7168,2.7184,2.718,2.7196,2.7209,2.723,2.7243,2.726,2.7284,2.7303,2.7312,2.7331,2.7343,2.7342,2.7348,2.7347,2.7349,2.7312,2.7305,2.7349,2.7349,2.7349,2.7349,2.7349,2.7349,2.7143,2.7171,2.7175,2.7209,2.7218,2.7242,2.7251,2.7264,2.7275,2.7302,2.7319,2.7325,2.7337,2.7356,2.7374,2.7376,2.7383,2.739,2.7391,2.7356,2.7351,2.7347,2.7341,2.7392,2.7392,2.7427,2.7427,2.7428]}]]